Anoka County, MN

12:38 AM CDT on May 01, 2017 (GMT -0500)
Anoka County / Blaine Airport

Weather History for KANE - December, 2012

Change the Weather History Date:

Sunday, December 23, 2012

  Actual Average Record
Temperature  
Mean Temperature 14 °F -  
Max Temperature 19 °F 22 °F 42 °F (2005)
Min Temperature 8 °F 8 °F -9 °F (2004)
Degree Days  
Heating Degree Days 52    
Moisture  
Dew Point 10 °F    
Average Humidity 82    
Maximum Humidity 93    
Minimum Humidity 68    
Precipitation  
Precipitation 0.00 in - - ()
Sea Level Pressure  
Sea Level Pressure 30.07 in    
Wind  
Wind Speed 10 mph (North)    
Max Wind Speed 16 mph    
Max Gust Speed 23 mph    
Visibility 10 miles    
Events      
Averages and records for this station are not official NWS values.
T = Trace of Precipitation, MM = Missing Value Source: NWS Daily Summary

Daily Weather History Graph

Daily Weather History Graph

Search for Another Location

Airport or City:

Trip Planner

Search our weather history database for the weather conditions in past years. The results will help you decide how hot, cold, wet, or windy it might be!

Date:

Astronomy

Dec. 23, 2012 Rise Set
Actual Time 7:49 AM CST 4:34 PM CST
Civil Twilight 7:15 AM CST 5:08 PM CST
Nautical Twilight 6:38 AM CST 5:46 PM CST
Astronomical Twilight 6:02 AM CST 6:22 PM CST
Moon 1:31 PM CST (12/23) 3:26 AM CST (12/23)
Length of Visible Light 9h 53m
Length of Day
8h 45m
Waxing Gibbous, 82% of the Moon is Illuminated
Dec 23
Waxing Gibbous
Dec 28
Full
Jan 4
Last Quarter
Jan 11
New
Jan 18
First Quarter

Hourly Weather History & Observations

Time (CST) Temp. Windchill Dew Point Humidity Pressure Visibility Wind Dir Wind Speed Gust Speed Precip Events Conditions
12:14 AM 19.4 °F 5.0 °F 17.6 °F 93% 30.04 in 10.0 mi North 16.1 mph 19.6 mph N/A   Overcast
12:34 AM 19.4 °F 5.0 °F 15.8 °F 86% 30.04 in 10.0 mi North 16.1 mph - N/A   Overcast
12:54 AM 19.4 °F 6.0 °F 15.8 °F 86% 30.05 in 10.0 mi North 13.8 mph - N/A   Overcast
1:14 AM 19.4 °F 7.9 °F 15.8 °F 86% 30.05 in 10.0 mi NNW 10.4 mph - N/A   Overcast
1:34 AM 17.6 °F 3.7 °F 15.8 °F 93% 30.06 in 10.0 mi NNW 13.8 mph - N/A   Overcast
1:54 AM 17.6 °F 5.0 °F 15.8 °F 93% 30.06 in 10.0 mi NNW 11.5 mph - N/A   Overcast
2:14 AM 17.6 °F 3.2 °F 14.0 °F 86% 30.06 in 10.0 mi North 15.0 mph - N/A   Overcast
2:34 AM 15.8 °F 2.1 °F 10.4 °F 79% 30.07 in 10.0 mi North 12.7 mph 23.0 mph N/A   Mostly Cloudy
2:54 AM 14.0 °F 2.0 °F 10.4 °F 86% 30.08 in 10.0 mi North 9.2 mph - N/A   Scattered Clouds
3:14 AM 12.2 °F -0.2 °F 8.6 °F 85% 30.08 in 10.0 mi North 9.2 mph - N/A   Clear
3:33 AM 12.2 °F 0.7 °F 8.6 °F 85% 30.09 in 10.0 mi NNW 8.1 mph - N/A   Clear
3:54 AM 12.2 °F -0.2 °F 8.6 °F 85% 30.09 in 10.0 mi North 9.2 mph - N/A   Clear
4:14 AM 12.2 °F 0.7 °F 8.6 °F 85% 30.09 in 10.0 mi North 8.1 mph - N/A   Clear
4:33 AM 12.2 °F -0.2 °F 8.6 °F 85% 30.10 in 10.0 mi North 9.2 mph - N/A   Clear
4:54 AM 10.4 °F -4.8 °F 8.6 °F 92% 30.11 in 10.0 mi North 12.7 mph - N/A   Clear
5:14 AM 12.2 °F -1.0 °F 8.6 °F 85% 30.11 in 10.0 mi North 10.4 mph - N/A   Clear
5:34 AM 10.4 °F -0.4 °F 8.6 °F 92% 30.12 in 10.0 mi North 6.9 mph - N/A   Clear
6:14 AM 10.4 °F 0.8 °F 6.8 °F 85% 30.12 in 10.0 mi NNE 5.8 mph - N/A   Clear
6:34 AM 10.4 °F -0.4 °F 6.8 °F 85% 30.11 in 10.0 mi NNE 6.9 mph - N/A   Clear
6:45 AM 10.4 °F -1.5 °F 6.8 °F 85% 30.11 in 12.0 mi NNE 8.1 mph - N/A   Mostly Cloudy
6:54 AM 10.4 °F 0.8 °F 6.8 °F 85% 30.11 in 10.0 mi NNE 5.8 mph - N/A   Clear
7:50 AM 8.6 °F -3.7 °F 6.8 °F 92% 30.12 in 12.0 mi North 8.1 mph - N/A   Mostly Cloudy
8:45 AM 10.4 °F 2.2 °F 6.8 °F 85% 30.13 in 10.0 mi North 4.6 mph - N/A   Mostly Cloudy
9:45 AM 12.2 °F 0.7 °F 8.6 °F 85% 30.14 in 10.0 mi North 8.1 mph - N/A   Scattered Clouds
10:45 AM 14.0 °F 2.0 °F 8.6 °F 79% 30.13 in 10.0 mi NNE 9.2 mph - N/A   Scattered Clouds
11:45 AM 15.8 °F 4.2 °F 10.4 °F 79% 30.09 in 10.0 mi NE 9.2 mph - N/A   Scattered Clouds
12:45 PM 15.8 °F 6.1 °F 10.4 °F 79% 30.09 in 10.0 mi NE 6.9 mph - N/A   Mostly Cloudy
1:45 PM 19.4 °F 11.5 °F 10.4 °F 68% 30.06 in 10.0 mi NNE 5.8 mph - N/A   Mostly Cloudy
2:45 PM 19.4 °F 11.5 °F 10.4 °F 68% 30.07 in 10.0 mi NNE 5.8 mph - N/A   Scattered Clouds
3:45 PM 19.4 °F 11.5 °F 10.4 °F 68% 30.07 in 10.0 mi NE 5.8 mph - N/A   Scattered Clouds
4:45 PM 19.4 °F - 10.4 °F 68% 30.08 in 10.0 mi Calm Calm - N/A   Mostly Cloudy
5:45 PM 17.6 °F 10.7 °F 10.4 °F 73% 30.09 in 10.0 mi North 4.6 mph - N/A   Mostly Cloudy
6:55 PM 15.8 °F 8.6 °F 8.6 °F 73% 30.07 in 10.0 mi North 4.6 mph - N/A   Mostly Cloudy
8:45 PM 15.8 °F - 8.6 °F 73% 30.04 in 10.0 mi Calm Calm - N/A   Mostly Cloudy
9:14 PM 15.8 °F 8.6 °F 8.6 °F 73% 30.02 in 10.0 mi NNE 4.6 mph - N/A   Mostly Cloudy
9:34 PM 15.8 °F 10.2 °F 10.4 °F 79% 30.02 in 10.0 mi NNE 3.5 mph - N/A   Overcast
9:54 PM 15.8 °F 7.2 °F 10.4 °F 79% 30.02 in 10.0 mi NNE 5.8 mph - N/A   Scattered Clouds
10:14 PM 15.8 °F 8.6 °F 8.6 °F 73% 30.02 in 10.0 mi North 4.6 mph - N/A   Scattered Clouds
10:34 PM 15.8 °F 7.2 °F 10.4 °F 79% 30.03 in 10.0 mi North 5.8 mph - N/A   Mostly Cloudy
10:54 PM 15.8 °F 10.2 °F 10.4 °F 79% 30.03 in 10.0 mi North 3.5 mph - N/A   Overcast
11:14 PM 15.8 °F 8.6 °F 10.4 °F 79% 30.03 in 10.0 mi NE 4.6 mph - N/A   Overcast
11:34 PM 15.8 °F 6.1 °F 10.4 °F 79% 30.02 in 10.0 mi NNE 6.9 mph - N/A   Overcast
11:54 PM 15.8 °F 7.2 °F 10.4 °F 79% 30.02 in 10.0 mi NNE 5.8 mph - N/A   Overcast